This is the latest recevied weather packets stored in our database for station/object KG4IFE-13. If no packets are shown the sender has not sent any weather packets the latest 10 day(s).
| Time | Temp. | Humidity | Pressure | Rain* | Wind** | Luminosity | Snow |
|---|---|---|---|---|---|---|---|
| 1777205550 | 13.33° C | 89% | 1015.1 hPa | - | - | - | - |
| 1777204992 | 13.89° C | 89% | 1014.9 hPa | - | - | - | - |
| 1777204366 | 13.33° C | 89% | 1014.7 hPa | - | - | - | - |
| 1777203443 | 13.33° C | 89% | 1014.2 hPa | - | - | - | - |
| 1777203143 | 13.33° C | 89% | 1014.2 hPa | - | - | - | - |
| 1777201337 | 13.33° C | 89% | 1013.7 hPa | - | - | - | - |
| 1777200734 | 13.33° C | 89% | 1013.5 hPa | - | - | - | - |
| 1777198326 | 13.33° C | 89% | 1013.3 hPa | - | - | - | - |
| 1777196520 | 13.33° C | 89% | 1013 hPa | - | - | - | - |
| 1777195938 | 12.78° C | 89% | 1013 hPa | - | - | - | - |
| 1777194734 | 12.78° C | 89% | 1012.8 hPa | - | - | - | - |
| 1777192909 | 12.78° C | 89% | 1012.5 hPa | - | - | - | - |
| 1777191102 | 12.78° C | 89% | 1011.9 hPa | - | - | - | - |
| 1777190801 | 12.78° C | 89% | 1011.9 hPa | - | - | - | - |
| 1777189898 | 12.78° C | 89% | 1011.7 hPa | - | - | - | - |
| 1777189296 | 12.78° C | 89% | 1011.6 hPa | - | - | - | - |
| 1777188093 | 12.22° C | 89% | 1011.3 hPa | - | - | - | - |
| 1777187793 | 12.22° C | 89% | 1011.3 hPa | - | - | - | - |
| 1777185383 | 12.78° C | 88% | 1011.2 hPa | - | - | - | - |
| 1777179986 | 13.33° C | 88% | 1011.2 hPa | - | - | - | - |
| 1777179062 | 13.89° C | 88% | 1011.2 hPa | - | - | - | - |
| 1777174268 | 14.44° C | 88% | 1011 hPa | - | - | - | - |
| 1777173042 | 15° C | 88% | 1011.1 hPa | - | - | - | - |
| 1777172138 | 15° C | 88% | 1011.2 hPa | - | - | - | - |
| 1777171859 | 15° C | 88% | 1011.3 hPa | - | - | - | - |
* Rain since midnight (hover to see other rain measurements)
** Current wind speed in m/s (hover to see current wind gust speed)